When you browse on this site, cookies collect data to enhance your experience and personalize the content and advertising you see.
Visit our Privacy Policy to learn more. By continuing to use the site, you agree to this use of cookies and data.
  • In United Kingdom
  • List of Countries
  • For 7 days
  • Water Temperature
  • Weather Map
  • Weather Widgets
  • user-avatar
    Login

    Hourly Weather Bristol

    Today, 18 September, Wednesday

    Time Temperature Precipitation Wind Pressure Humidity
    00:00 +9°C° 0 mm 3 mps 769 mmHg 88%
    01:00 +9°C° 0 mm 2 mps 769 mmHg 89%
    02:00 +9°C° 0 mm 2 mps 769 mmHg 90%
    03:00 +8°C° 0 mm 2 mps 769 mmHg 91%
    04:00 +8°C° 0 mm 2 mps 770 mmHg 91%
    05:00 +9°C° 0 mm 1 mps 770 mmHg 91%
    06:00 +9°C° 0 mm 1 mps 770 mmHg 89%
    07:00 +10°C° 0 mm 1 mps 770 mmHg 82%
    08:00 +12°C° 0 mm 1 mps 770 mmHg 74%
    09:00 +14°C° 0 mm 1 mps 771 mmHg 67%
    10:00 +15°C° 0 mm 1 mps 771 mmHg 63%
    11:00 +18°C° 0 mm 1 mps 770 mmHg 59%
    12:00 +19°C° 0 mm 1 mps 770 mmHg 55%
    13:00 +19°C° 0 mm 1 mps 770 mmHg 54%
    14:00 +20°C° 0 mm 1 mps 770 mmHg 54%
    15:00 +19°C° 0 mm 2 mps 770 mmHg 53%
    16:00 +18°C° 0 mm 2 mps 770 mmHg 59%
    17:00 +18°C° 0 mm 1 mps 770 mmHg 65%
    18:00 +15°C° 0 mm 1 mps 770 mmHg 71%
    19:00 +15°C° 0 mm 1 mps 770 mmHg 74%
    20:00 +14°C° 0 mm 1 mps 771 mmHg 76%
    21:00 +13°C° 0 mm 1 mps 771 mmHg 79%
    22:00 +12°C° 0 mm 1 mps 771 mmHg 81%
    23:00 +12°C° 0 mm 1 mps 771 mmHg 83%

    Tomorrow, 19 September, Thursday

    Time Temperature Precipitation Wind Pressure Humidity
    00:00 +12°C° 0 mm 1 mps 771 mmHg 85%
    01:00 +11°C° 0 mm 1 mps 771 mmHg 85%
    02:00 +11°C° 0 mm 1 mps 771 mmHg 86%
    03:00 +11°C° 0 mm 1 mps 771 mmHg 86%
    04:00 +11°C° 0 mm 1 mps 771 mmHg 87%
    05:00 +10°C° 0 mm 1 mps 771 mmHg 87%
    06:00 +10°C° 0 mm 1 mps 771 mmHg 87%
    07:00 +12°C° 0 mm 1 mps 771 mmHg 82%
    08:00 +14°C° 0 mm 1 mps 771 mmHg 76%
    09:00 +15°C° 0 mm 1 mps 772 mmHg 71%
    10:00 +18°C° 0 mm 1 mps 772 mmHg 67%
    11:00 +18°C° 0 mm 2 mps 771 mmHg 63%
    12:00 +20°C° 0 mm 2 mps 771 mmHg 59%
    13:00 +20°C° 0 mm 2 mps 771 mmHg 58%
    14:00 +20°C° 0 mm 2 mps 771 mmHg 58%
    15:00 +21°C° 0 mm 2 mps 771 mmHg 57%
    16:00 +20°C° 0 mm 2 mps 770 mmHg 62%
    17:00 +18°C° 0 mm 2 mps 770 mmHg 68%
    18:00 +17°C° 0 mm 2 mps 770 mmHg 73%
    19:00 +16°C° 0 mm 2 mps 770 mmHg 76%
    20:00 +15°C° 0 mm 2 mps 770 mmHg 79%
    21:00 +14°C° 0 mm 2 mps 770 mmHg 82%
    22:00 +13°C° 0 mm 2 mps 770 mmHg 84%
    23:00 +13°C° 0 mm 2 mps 770 mmHg 85%

    Day after tomorrow, 20 September, Friday

    Time Temperature Precipitation Wind Pressure Humidity
    00:00 +12°C° 0 mm 2 mps 769 mmHg 87%
    01:00 +12°C° 0 mm 2 mps 769 mmHg 88%
    02:00 +10°C° 0 mm 2 mps 769 mmHg 89%
    03:00 +10°C° 0 mm 3 mps 768 mmHg 90%
    04:00 +10°C° 0 mm 3 mps 768 mmHg 91%
    05:00 +9°C° 0 mm 3 mps 768 mmHg 92%
    06:00 +9°C° 0 mm 3 mps 767 mmHg 92%
    07:00 +11°C° 0 mm 4 mps 767 mmHg 84%
    08:00 +13°C° 0 mm 5 mps 767 mmHg 75%
    09:00 +15°C° 0 mm 6 mps 767 mmHg 66%
    10:00 +16°C° 0 mm 6 mps 766 mmHg 61%
    11:00 +17°C° 0 mm 6 mps 765 mmHg 55%
    12:00 +19°C° 0 mm 6 mps 765 mmHg 50%
    13:00 +20°C° 0 mm 6 mps 764 mmHg 48%
    14:00 +20°C° 0 mm 6 mps 763 mmHg 46%
    15:00 +20°C° 0 mm 6 mps 763 mmHg 45%
    16:00 +19°C° 0 mm 6 mps 762 mmHg 48%
    17:00 +16°C° 0 mm 5 mps 761 mmHg 52%
    18:00 +15°C° 0 mm 5 mps 761 mmHg 56%
    19:00 +14°C° 0 mm 5 mps 761 mmHg 55%
    20:00 +14°C° 0 mm 6 mps 760 mmHg 55%
    21:00 +13°C° 0 mm 6 mps 760 mmHg 55%
    22:00 +13°C° 0 mm 6 mps 760 mmHg 58%
    23:00 +13°C° 0 mm 6 mps 759 mmHg 60%

    21 September, Saturday

    Time Temperature Precipitation Wind Pressure Humidity
    00:00 +13°C° 0 mm 6 mps 759 mmHg 63%
    01:00 +13°C° 0 mm 5 mps 758 mmHg 65%
    02:00 +13°C° 0 mm 5 mps 758 mmHg 67%
    03:00 +12°C° 0 mm 5 mps 757 mmHg 68%
    04:00 +12°C° 0 mm 5 mps 757 mmHg 71%
    05:00 +12°C° 0 mm 5 mps 756 mmHg 73%
    06:00 +12°C° 0 mm 4 mps 755 mmHg 75%
    07:00 +13°C° 0 mm 5 mps 755 mmHg 73%
    08:00 +15°C° 0 mm 5 mps 755 mmHg 71%
    09:00 +16°C° 0 mm 5 mps 755 mmHg 68%
    10:00 +19°C° 0 mm 5 mps 755 mmHg 66%
    11:00 +21°C° 0 mm 5 mps 754 mmHg 64%
    12:00 +22°C° 0 mm 5 mps 754 mmHg 61%
    13:00 +23°C° 0 mm 6 mps 753 mmHg 63%
    14:00 +23°C° 0 mm 6 mps 753 mmHg 64%
    15:00 +23°C° 0 mm 6 mps 752 mmHg 66%
    16:00 +22°C° 0.1 mm 6 mps 752 mmHg 69%
    17:00 +21°C° 0.1 mm 6 mps 751 mmHg 73%
    18:00 +20°C° 0.1 mm 5 mps 751 mmHg 77%
    19:00 +20°C° 0.1 mm 5 mps 751 mmHg 79%
    20:00 +19°C° 0.1 mm 5 mps 751 mmHg 81%
    21:00 +19°C° 0.1 mm 5 mps 750 mmHg 83%
    22:00 +19°C° 0.5 mm 5 mps 750 mmHg 85%
    23:00 +19°C° 0.5 mm 5 mps 750 mmHg 87%

    22 September, Sunday

    Time Temperature Precipitation Wind Pressure Humidity
    00:00 +19°C° 0.5 mm 5 mps 750 mmHg 89%
    01:00 +18°C° 0.2 mm 4 mps 750 mmHg 90%
    02:00 +18°C° 0.2 mm 4 mps 750 mmHg 92%
    03:00 +18°C° 0.2 mm 4 mps 750 mmHg 93%
    04:00 +17°C° 0.1 mm 4 mps 750 mmHg 92%
    05:00 +16°C° 0.1 mm 3 mps 750 mmHg 91%
    06:00 +16°C° 0.1 mm 3 mps 751 mmHg 90%
    07:00 +15°C° 0 mm 4 mps 751 mmHg 86%
    08:00 +16°C° 0 mm 5 mps 751 mmHg 82%
    09:00 +17°C° 0 mm 6 mps 752 mmHg 79%
    10:00 +17°C° 0 mm 6 mps 752 mmHg 72%
    11:00 +19°C° 0 mm 6 mps 752 mmHg 66%
    12:00 +20°C° 0 mm 6 mps 752 mmHg 59%
    13:00 +19°C° 0.2 mm 6 mps 752 mmHg 63%
    14:00 +19°C° 0.2 mm 6 mps 752 mmHg 66%
    15:00 +19°C° 0.2 mm 6 mps 752 mmHg 69%
    16:00 +17°C° 0.1 mm 5 mps 752 mmHg 73%
    17:00 +15°C° 0.1 mm 5 mps 753 mmHg 77%
    18:00 +14°C° 0.1 mm 5 mps 753 mmHg 81%
    19:00 +13°C° 0 mm 4 mps 754 mmHg 83%
    20:00 +13°C° 0 mm 4 mps 754 mmHg 85%
    21:00 +12°C° 0 mm 3 mps 755 mmHg 87%
    22:00 +12°C° 0 mm 3 mps 755 mmHg 89%
    23:00 +11°C° 0 mm 3 mps 755 mmHg 90%

    23 September, Monday

    Time Temperature Precipitation Wind Pressure Humidity
    00:00 +11°C° 0 mm 3 mps 755 mmHg 92%
    01:00 +10°C° 0 mm 3 mps 755 mmHg 92%
    02:00 +10°C° 0 mm 3 mps 755 mmHg 92%
    03:00 +10°C° 0 mm 2 mps 755 mmHg 92%
    04:00 +10°C° 0 mm 3 mps 755 mmHg 92%
    05:00 +11°C° 0 mm 3 mps 755 mmHg 92%
    06:00 +11°C° 0 mm 3 mps 755 mmHg 92%
    07:00 +12°C° 0 mm 4 mps 755 mmHg 90%
    08:00 +14°C° 0 mm 4 mps 754 mmHg 88%
    09:00 +15°C° 0 mm 5 mps 754 mmHg 85%
    10:00 +15°C° 0.2 mm 5 mps 754 mmHg 87%
    11:00 +15°C° 0.2 mm 6 mps 753 mmHg 88%
    12:00 +15°C° 0.2 mm 6 mps 753 mmHg 90%
    13:00 +15°C° 0.7 mm 6 mps 753 mmHg 91%
    14:00 +16°C° 0.7 mm 5 mps 753 mmHg 93%
    15:00 +17°C° 0.7 mm 4 mps 752 mmHg 95%
    16:00 +18°C° 0.3 mm 4 mps 753 mmHg 95%
    17:00 +18°C° 0.3 mm 4 mps 753 mmHg 95%
    18:00 +18°C° 0.3 mm 4 mps 753 mmHg 95%
    19:00 +18°C° 0.1 mm 4 mps 753 mmHg 95%
    20:00 +17°C° 0.1 mm 4 mps 754 mmHg 95%
    21:00 +17°C° 0.1 mm 4 mps 754 mmHg 96%
    22:00 +17°C° 0 mm 4 mps 754 mmHg 96%
    23:00 +15°C° 0 mm 4 mps 754 mmHg 96%
    Show more